Williams, AZ

2:27 AM MST on January 22, 2018 (GMT -0700)
Williams

Weather History for KCMR - July, 2013

Change the Weather History Date:

Thursday, July 25, 2013

  Actual Average (K40G) Record (K40G)
Temperature  
Mean Temperature 71 °F -  
Max Temperature 82 °F 81 °F 97 °F (1996)
Min Temperature 60 °F 72 °F 64 °F (2002)
Cooling Degree Days 6    
Growing Degree Days 21 (Base 50)    
Moisture  
Dew Point 57 °F    
Average Humidity 72    
Maximum Humidity 88    
Minimum Humidity 35    
Precipitation  
Precipitation 0.02 in - - ()
Sea Level Pressure  
Sea Level Pressure 30.38 in    
Wind  
Wind Speed 4 mph (SSE)    
Max Wind Speed 13 mph    
Max Gust Speed 21 mph    
Visibility 10 miles    
Events      
Averages and records for this station are not official NWS values.
T = Trace of Precipitation, MM = Missing Value Source: NWS Daily Summary

Daily Weather History Graph

Daily Weather History Graph

Search for Another Location

Airport or City:

Trip Planner

Search our weather history database for the weather conditions in past years. The results will help you decide how hot, cold, wet, or windy it might be!

Date:

Astronomy

Jul. 25, 2013 Rise Set
Actual Time 5:32 AM MST 7:37 PM MST
Civil Twilight 5:04 AM MST 8:05 PM MST
Nautical Twilight 4:29 AM MST 8:40 PM MST
Astronomical Twilight 3:52 AM MST 9:17 PM MST
Moon 9:31 PM MST (7/25) 8:56 AM MST (7/25)
Length of Visible Light 15h 01m
Length of Day
14h 05m
Waning Gibbous, 87% of the Moon is Illuminated
Jul 25
Waning Gibbous
Jul 29
Last Quarter
Aug 6
New
Aug 14
First Quarter
Aug 20
Full

Hourly Weather History & Observations

Time (MST) Temp. Heat Index Dew Point Humidity Pressure Visibility Wind Dir Wind Speed Gust Speed Precip Events Conditions
12:15 AM 64.4 °F - 55.4 °F 73% 30.32 in 10.0 mi Calm Calm - N/A   Partly Cloudy
12:35 AM 64.4 °F - 55.4 °F 73% 30.32 in 10.0 mi Calm Calm - N/A   Partly Cloudy
12:55 AM 66.2 °F - 55.4 °F 68% 30.32 in 10.0 mi Calm Calm - N/A   Scattered Clouds
1:15 AM 66.2 °F - 55.4 °F 68% 30.32 in 10.0 mi Calm Calm - N/A   Mostly Cloudy
1:35 AM 64.4 °F - 55.4 °F 73% 30.33 in 10.0 mi Calm Calm - N/A   Partly Cloudy
1:55 AM 66.2 °F - 55.4 °F 68% 30.34 in 10.0 mi Calm Calm - N/A   Scattered Clouds
2:15 AM 62.6 °F - 55.4 °F 77% 30.34 in 10.0 mi Calm Calm - N/A   Partly Cloudy
2:35 AM 62.6 °F - 55.4 °F 77% 30.34 in 10.0 mi Calm Calm - N/A   Scattered Clouds
2:55 AM 62.6 °F - 55.4 °F 77% 30.33 in 10.0 mi South 5.8 mph - N/A   Mostly Cloudy
3:15 AM 60.8 °F - 55.4 °F 82% 30.34 in 10.0 mi SSE 8.1 mph - N/A   Partly Cloudy
3:35 AM 62.6 °F - 55.4 °F 77% 30.34 in 10.0 mi SSE 11.5 mph - N/A   Scattered Clouds
3:55 AM 62.6 °F - 55.4 °F 77% 30.35 in 10.0 mi SSE 6.9 mph - N/A   Scattered Clouds
4:15 AM 62.6 °F - 55.4 °F 77% 30.35 in 10.0 mi SSE 9.2 mph - N/A   Partly Cloudy
4:35 AM 62.6 °F - 55.4 °F 77% 30.36 in 10.0 mi SSE 6.9 mph - N/A   Clear
4:55 AM 62.6 °F - 55.4 °F 77% 30.36 in 10.0 mi SSE 8.1 mph - N/A   Clear
5:15 AM 62.6 °F - 55.4 °F 77% 30.35 in 10.0 mi SSE 6.9 mph - N/A   Clear
5:35 AM 62.6 °F - 55.4 °F 77% 30.36 in 10.0 mi SE 6.9 mph - N/A   Clear
5:55 AM 60.8 °F - 55.4 °F 82% 30.37 in 10.0 mi SE 5.8 mph - N/A   Clear
6:15 AM 60.8 °F - 55.4 °F 82% 30.37 in 10.0 mi SSE 6.9 mph - N/A   Clear
6:35 AM 62.6 °F - 57.2 °F 82% 30.37 in 10.0 mi SE 5.8 mph - N/A   Clear
6:55 AM 64.4 °F - 57.2 °F 77% 30.38 in 10.0 mi SE 5.8 mph - N/A   Clear
7:15 AM 66.2 °F - 57.2 °F 73% 30.38 in 10.0 mi South 5.8 mph - N/A   Clear
7:35 AM 68.0 °F - 59.0 °F 73% 30.38 in 10.0 mi SE 6.9 mph - N/A   Clear
7:55 AM 71.6 °F - 57.2 °F 60% 30.38 in 10.0 mi Calm Calm - N/A   Clear
8:15 AM 73.4 °F - 57.2 °F 57% 30.38 in 10.0 mi West 4.6 mph - N/A   Clear
8:35 AM 73.4 °F - 57.2 °F 57% 30.38 in 10.0 mi WNW 8.1 mph - N/A   Clear
8:55 AM 73.4 °F - 57.2 °F 57% 30.39 in 10.0 mi West 5.8 mph - N/A   Clear
9:15 AM 75.2 °F - 57.2 °F 53% 30.39 in 10.0 mi West 6.9 mph - N/A   Clear
9:35 AM 73.4 °F - 57.2 °F 57% 30.40 in 10.0 mi West 6.9 mph - N/A   Clear
9:55 AM 75.2 °F - 57.2 °F 53% 30.40 in 10.0 mi Calm Calm - N/A   Clear
10:15 AM 75.2 °F - 57.2 °F 53% 30.40 in 10.0 mi Calm Calm - N/A   Clear
10:35 AM 75.2 °F - 57.2 °F 53% 30.41 in 10.0 mi WNW 5.8 mph - N/A   Clear
10:55 AM 77.0 °F - 57.2 °F 50% 30.41 in 10.0 mi Calm Calm - N/A   Clear
11:15 AM 77.0 °F - 57.2 °F 50% 30.40 in 10.0 mi Calm Calm - N/A   Clear
11:35 AM 78.8 °F - 57.2 °F 47% 30.39 in 10.0 mi NW 6.9 mph - N/A   Clear
11:55 AM 78.8 °F - 57.2 °F 47% 30.39 in 10.0 mi WNW 5.8 mph - N/A   Clear
12:15 PM 80.6 °F 80.8 °F 57.2 °F 45% 30.39 in 10.0 mi NW 6.9 mph - N/A   Partly Cloudy
12:35 PM 80.6 °F 80.5 °F 55.4 °F 42% 30.38 in 10.0 mi NW 8.1 mph - N/A   Partly Cloudy
12:55 PM 80.6 °F 80.3 °F 53.6 °F 39% 30.38 in 10.0 mi Calm Calm - N/A   Clear
1:15 PM 82.4 °F 81.4 °F 53.6 °F 37% 30.37 in 10.0 mi WSW 4.6 mph - N/A   Clear
1:35 PM 82.4 °F - 51.8 °F 35% 30.38 in 10.0 mi ESE 9.2 mph - N/A   Scattered Clouds
1:55 PM 73.4 °F - 57.2 °F 57% 30.38 in 10.0 mi SE 12.7 mph 19.6 mph N/A   Mostly Cloudy
2:15 PM 66.2 °F - 59.0 °F 78% 30.38 in 9.0 mi South 11.5 mph 20.7 mph 0.01 in   Mostly Cloudy
2:35 PM 64.4 °F - 55.4 °F 73% 30.38 in 10.0 mi SSW 10.4 mph 18.4 mph 0.01 in   Partly Cloudy
2:55 PM 64.4 °F - 59.0 °F 83% 30.36 in 10.0 mi SE 5.8 mph - 0.02 in   Partly Cloudy
3:15 PM 64.4 °F - 59.0 °F 83% 30.39 in 10.0 mi WSW 3.5 mph - N/A   Partly Cloudy
3:35 PM 64.4 °F - 59.0 °F 83% 30.39 in 10.0 mi Calm Calm - N/A   Clear
3:55 PM 64.4 °F - 57.2 °F 77% 30.41 in 10.0 mi Calm Calm - N/A   Clear
4:15 PM 64.4 °F - 59.0 °F 83% 30.40 in 10.0 mi SSE 5.8 mph - N/A   Partly Cloudy
4:35 PM 64.4 °F - 59.0 °F 83% 30.39 in 10.0 mi SSE 6.9 mph - N/A   Partly Cloudy
4:55 PM 64.4 °F - 59.0 °F 83% 30.38 in 10.0 mi South 6.9 mph - N/A   Partly Cloudy
5:15 PM 66.2 °F - 59.0 °F 78% 30.39 in 10.0 mi South 5.8 mph - N/A   Clear
5:35 PM 66.2 °F - 59.0 °F 78% 30.40 in 10.0 mi ESE 5.8 mph - N/A   Mostly Cloudy
5:55 PM 66.2 °F - 59.0 °F 78% 30.39 in 10.0 mi South 3.5 mph - N/A   Mostly Cloudy
6:15 PM 64.4 °F - 60.8 °F 88% 30.39 in 10.0 mi ESE 3.5 mph - N/A   Scattered Clouds
6:35 PM 66.2 °F - 59.0 °F 78% 30.39 in 10.0 mi SSW 4.6 mph - N/A   Clear
6:55 PM 66.2 °F - 59.0 °F 78% 30.41 in 10.0 mi East 8.1 mph - N/A   Clear
7:15 PM 66.2 °F - 59.0 °F 78% 30.41 in 10.0 mi East 5.8 mph - N/A   Clear
7:35 PM 64.4 °F - 59.0 °F 83% 30.41 in 10.0 mi SSE 6.9 mph - N/A   Clear
7:55 PM 64.4 °F - 59.0 °F 83% 30.41 in 10.0 mi SSE 4.6 mph - N/A   Clear
8:15 PM 64.4 °F - 59.0 °F 83% 30.40 in 10.0 mi SSE 6.9 mph - N/A   Clear
8:35 PM 64.4 °F - 59.0 °F 83% 30.41 in 10.0 mi SE 4.6 mph - N/A   Scattered Clouds
8:55 PM 64.4 °F - 59.0 °F 83% 30.42 in 10.0 mi Calm Calm - N/A   Partly Cloudy
9:15 PM 62.6 °F - 59.0 °F 88% 30.43 in 10.0 mi SSE 3.5 mph - N/A   Clear
9:35 PM 62.6 °F - 59.0 °F 88% 30.44 in 10.0 mi SSE 4.6 mph - N/A   Clear
9:55 PM 62.6 °F - 59.0 °F 88% 30.44 in 10.0 mi SE 4.6 mph - N/A   Clear
10:15 PM 62.6 °F - 59.0 °F 88% 30.44 in 10.0 mi SW 3.5 mph - N/A   Clear
10:35 PM 62.6 °F - 59.0 °F 88% 30.44 in 10.0 mi SE 4.6 mph - N/A   Clear
10:55 PM 62.6 °F - 57.2 °F 82% 30.44 in 10.0 mi SSE 5.8 mph - N/A   Clear
11:15 PM 62.6 °F - 57.2 °F 82% 30.43 in 10.0 mi SSE 6.9 mph - N/A   Clear
11:35 PM 62.6 °F - 57.2 °F 82% 30.43 in 10.0 mi SE 4.6 mph - N/A   Clear
11:55 PM 60.8 °F - 57.2 °F 88% 30.43 in 10.0 mi SE 5.8 mph - N/A   Clear